Theta_e
322 323 326 328 328 327 328 329 329 326 325 328 335 337 338 338 342 347 348 350 351 350 350 349 349 349 349 348 343 342 344 340
322 322 323 326 328 329 328 330 331 329 329 326 334 336 337 338 338 342 346 348 349 351 351 350 349 350 351 350 347 343 345 344
319 322 322 325 327 328 329 329 331 331 330 328 330 332 336 337 337 339 344 347 348 350 351 351 351 350 350 351 351 348 346 347
315 320 323 323 326 327 330 332 330 331 331 329 329 330 332 335 336 337 339 344 347 349 350 351 351 351 350 350 350 350 348 345
313 314 317 321 324 326 327 330 333 333 332 330 330 332 330 332 334 336 338 340 345 348 349 350 351 352 351 351 349 350 350 350
312 314 314 318 321 322 324 329 330 332 333 331 332 331 333 333 333 333 337 340 343 346 347 350 351 352 351 351 350 349 350 350
311 311 310 312 314 317 319 324 328 330 332 334 331 330 331 331 332 334 333 332 337 342 346 348 351 352 352 352 352 350 350 351
310 310 309 309 312 315 317 319 322 326 328 331 331 334 337 334 339 340 339 342 339 339 345 347 350 353 354 353 352 351 351 350
310 309 309 312 313 317 318 319 321 325 327 331 332 335 341 341 341 341 342 344 344 346 343 342 347 351 353 353 352 352 352 351
310 310 309 310 312 317 319 320 321 323 325 329 332 336 343 339 339 339 340 341 344 346 346 348 342 345 351 354 353 353 353 351
310 310 309 313 322 323 323 323 323 325 326 328 330 338 344 337 337 339 340 341 343 345 347 349 350 342 346 351 354 355 353 350
310 310 313 317 314 313 320 328 321 321 325 328 333 339 338 335 337 339 341 344 346 348 350 351 351 342 345 350 352 354 352 349
312 311 313 313 310 309 325 325 316 318 321 326 335 331 329 327 330 334 341 345 349 353 352 349 348 342 345 350 352 352 355 355
312 313 315 310 308 316 316 317 316 316 317 318 321 321 321 321 322 330 342 348 352 353 350 347 347 346 350 352 353 355 355 355
313 314 311 310 309 309 315 316 317 316 316 315 316 317 317 319 320 325 335 346 352 354 354 352 351 351 353 353 355 356 356 356
311 313 311 310 310 309 313 316 317 316 315 316 316 316 316 317 319 322 324 335 346 350 352 355 354 355 356 357 357 357 358 358
309 309 308 310 309 310 313 315 316 315 314 315 315 316 314 316 319 322 321 321 336 344 347 348 348 350 355 358 357 358 359 359
310 306 309 309 309 309 312 314 316 315 315 315 315 316 314 314 320 322 324 322 321 328 339 340 340 341 343 352 357 357 357 356
305 306 307 306 307 308 309 312 313 313 314 315 314 315 315 314 321 324 324 324 324 325 322 328 337 340 338 342 347 353 356 359
Wind_Speed
6 16 21 21 23 24 23 17 13 18 22 21 19 26 24 18 19 23 26 31 36 37 40 40 41 45 45 43 45 44 42 42
5 7 20 21 16 21 17 23 24 15 20 19 20 21 24 25 25 21 26 28 31 36 39 40 40 41 41 41 44 47 43 42
5 13 20 17 21 19 19 20 19 19 15 14 21 25 21 23 32 30 24 27 30 35 38 40 38 39 42 40 40 43 47 45
16 8 6 13 15 29 15 26 22 18 11 9 9 17 26 24 26 30 30 27 28 30 31 35 39 39 41 42 41 40 44 49
14 17 18 13 15 18 17 20 26 20 19 11 5 9 18 25 30 24 23 25 27 26 30 34 38 40 41 41 42 39 39 40
13 10 10 7 11 7 16 17 21 21 19 22 16 9 9 12 12 13 13 20 22 24 28 31 35 40 43 41 39 39 38 38
13 16 14 15 17 18 19 17 23 20 23 17 21 19 18 15 10 6 7 12 20 26 28 33 33 38 41 39 39 40 44 40
15 17 18 21 21 20 21 21 20 22 23 21 5 11 13 14 6 8 8 8 9 14 22 25 32 36 38 43 44 44 47 50
15 15 10 15 23 23 22 22 20 23 20 18 7 9 6 7 9 7 8 11 12 14 18 23 28 31 36 44 43 45 49 48
12 13 17 17 21 20 25 24 22 21 24 21 12 12 4 2 7 10 10 12 15 16 19 22 26 29 31 32 41 45 45 48
11 12 14 15 9 10 14 22 10 15 18 18 19 15 13 6 9 12 15 17 19 20 22 23 24 29 33 36 36 41 45 48
8 7 12 5 11 26 19 9 4 9 9 13 16 13 7 12 12 14 15 17 21 21 22 25 28 28 34 37 38 45 47 48
12 9 9 4 13 31 7 2 4 3 4 8 2 7 9 13 14 13 12 17 18 17 21 23 23 29 38 39 43 42 35 34
11 9 14 12 11 6 8 5 7 5 5 6 7 8 11 15 18 14 14 16 8 6 9 13 19 29 35 38 32 32 32 33
4 3 12 10 17 24 18 11 8 9 9 10 9 12 14 16 22 25 22 19 11 5 6 10 16 22 25 27 27 27 30 31
2 4 8 17 14 20 16 9 9 9 10 9 10 12 15 20 25 29 28 24 24 18 17 16 12 13 16 18 21 23 24 24
4 5 20 3 10 16 16 9 8 8 8 9 10 12 16 18 21 24 27 30 27 26 25 22 20 18 14 14 16 19 19 19
3 12 10 9 12 14 13 13 8 7 8 8 9 10 14 14 16 19 23 27 29 27 27 22 21 20 19 18 19 15 15 17
7 17 10 15 12 16 13 13 12 13 12 10 9 8 10 13 15 14 17 23 23 22 23 22 22 22 22 20 18 15 14 13
Wind_Direction
273 228 234 210 219 231 257 256 253 221 219 232 231 221 226 223 223 197 205 207 208 206 204 203 204 204 204 205 212 212 212 218
187 256 247 254 226 216 234 240 245 226 235 214 205 221 219 228 220 216 209 209 210 208 207 206 206 206 206 206 211 212 211 215
223 214 224 217 235 243 226 228 238 238 230 230 212 216 221 224 222 220 208 209 209 209 209 208 206 205 206 206 207 209 214 215
253 242 290 309 260 221 228 225 236 266 243 175 223 227 214 225 212 221 219 212 211 210 209 208 207 206 206 206 206 208 210 217
235 237 243 250 249 253 259 251 228 229 229 264 230 247 220 224 230 217 206 218 217 211 210 210 209 208 207 207 207 206 207 210
278 360 350 284 274 279 271 244 244 240 245 211 207 212 215 213 234 239 211 221 214 213 211 211 210 210 208 209 207 205 206 207
264 280 273 266 264 261 258 255 255 235 237 238 235 247 246 248 214 212 212 216 214 216 215 211 210 210 209 208 206 205 206 205
275 269 265 266 260 255 250 249 254 263 275 244 286 303 267 257 268 253 242 239 222 219 216 216 215 213 210 206 206 203 205 208
266 272 271 268 254 249 243 240 237 236 246 247 252 262 277 264 268 271 261 262 258 243 230 222 222 216 213 209 204 206 206 207
260 281 251 260 254 247 236 238 234 244 235 260 266 280 205 320 304 293 282 273 267 257 248 237 229 226 218 211 206 207 205 210
244 243 256 287 356 338 293 224 219 254 250 270 266 253 206 6 335 308 296 287 275 265 256 249 233 222 215 209 207 205 204 212
257 251 247 34 333 334 308 228 184 244 249 275 252 227 221 356 345 322 310 298 286 273 259 246 233 216 207 207 204 205 207 213
233 247 264 30 329 312 238 123 36 354 290 304 7 11 357 355 354 340 340 319 296 282 259 239 223 204 202 199 205 209 203 202
232 254 255 14 338 264 321 324 344 340 340 354 12 17 10 12 8 15 19 356 324 277 222 206 200 193 196 197 200 200 198 199
267 266 345 314 278 275 319 329 320 318 320 348 359 6 6 10 21 28 28 35 41 77 114 171 179 184 189 195 195 194 194 197
1 212 286 299 272 299 326 323 320 324 324 343 347 4 9 24 24 22 32 44 61 83 103 112 135 164 179 184 186 188 189 192
233 294 312 51 320 323 337 351 332 327 333 337 346 7 11 25 26 18 27 35 59 71 71 76 88 86 112 147 178 182 179 184
312 326 319 311 328 348 13 359 1 15 6 360 353 2 16 23 27 17 21 35 35 53 66 66 74 67 71 90 126 152 163 173
337 338 353 349 352 358 24 13 21 36 38 18 14 16 21 25 30 22 28 29 31 32 47 52 56 62 63 74 79 103 109 134